NOAA 16 DEB, 41536

Orbit data source: Space-Track

NOAA 16 DEB, 41536 is space debris in SSO originally from a launch on Thu, 21 Sep 2000 UTC launched from the Air Force Western Test Range (AFWTR). Debris objects in space refer to the collection of defunct objects orbiting the Earth. Examples of debris include non-operational satellites, rocket bodies, and fragments generated from explosions, collisions, or faulty payload assembly.

Loading next visibility...
NOAA 16 DEB details
Identifier
41536, 2000-055NL
Orbit
SSO
Last TLE update2 days ago
Origin
Flag of USNOAA (US)
ManufacturerUnknown
MissionSpacecraft
Bus & MotorUnknown
MassUnknown
Launch date (UTC)
2000-09-21 (24 years ago)
Launch vehicleUnknown
Launch site
Air Force Western Test Range (AFWTR)
Object type
Payload
Rocket body
Debris
Shape & HBRUnknown
Radar Cross SectionSmall (<0.1 m²)

Expand to show TLE details & history

TLE from 2 days ago
0 NOAA 16 DEB
1 41536U 00055NL  24338.50227015  .00011725  00000-0  46250-2 0  9996
2 41536  98.7412  66.5100 0012094  43.4449 316.7683 14.29182479459137
Epoch: 2024-12-03T12:03Z
Definitive object data (Epoch: 2024-12-03T12:03:16.14Z)
Latitude-0.00009°
Longitude172.88191°
Altitude791.074 km
Speed7.461 km/s
True Right ascension04h 26m 02s
True Declination0° 00' 00"
Sunlit
Object was in full shadow at TLE epoch
Visualization TLE readout
Latitude27.27833°
Longitude170.04842°
Altitude789.154 km
Speed7.466 km/s
Apparent Right ascension07h 25m 48s
Apparent Declination-15° 07' 18"
Sunlit
Object is in full shadow
Visualization observer readout
Local Sidereal Time02:27:51
Azimuth111.465° ESE
Elevation1.757°
Doppler factor1
Orbital elements
Apogee altitude800.284 km
Perigee altitude782.942 km
Semi-major axis7,169.75 km
Eccentricity0.0012094
Inclination98.7412°
RAAN66.51°
Arg. of periapsis43.4449°
True anomaly316.67327°
Mean anomaly316.7683°
Eccentric anomaly316.7208°
Mean motion3.57509 °/min
BSTAR0.004625
Orbital period100.7 mins
Loading maneuver chart data...
Loading historical data...
Loading historical data...
Loading historical data...
Loading historical data...
Loading historical data...
Loading historical data...
Loading historical data...

NOAA 16 DEB Visibility forecast

Observer location: undefined°, undefined

Span
Click to sort rows by Start time (UTC) header in descending order
Start Az.
Max El. time (UTC)
Max El. Az.
Max El.
End time (UTC)
End Az.
4 mins2024-12-05 04:33:26.846Z88.975° E2024-12-05 04:35:26.846Z65.646° ENE13.424°2024-12-05 04:37:26.846Z40.649° NE
8 mins2024-12-05 06:11:26.846Z174.363° S2024-12-05 06:14:26.846Z223.832° SW43.614°2024-12-05 06:19:26.846Z342.386° N
8 mins2024-12-05 18:25:26.846Z38.879° NE2024-12-05 18:28:26.846Z93.336° ESE33.136°2024-12-05 18:33:26.846Z168.367° S
6 mins2024-12-05 20:05:26.846Z332.581° NNW2024-12-05 20:07:26.846Z303.07° NW22.129°2024-12-05 20:11:26.846Z246.587° WSW
|